Year,Month,Day,Hour,Minute,Value (Times are PST for temperature in C)
2017,07,17,00,00,12.40
2017,07,17,00,01,12.40
2017,07,17,00,02,12.40
2017,07,17,00,03,12.30
2017,07,17,00,04,12.30
2017,07,17,00,05,12.30
2017,07,17,00,06,12.30
2017,07,17,00,07,12.30
2017,07,17,00,08,12.20
2017,07,17,00,09,12.20
2017,07,17,00,10,12.20
2017,07,17,00,11,12.20
2017,07,17,00,12,12.20
2017,07,17,00,13,12.10
2017,07,17,00,14,12.10
2017,07,17,00,15,12.10
2017,07,17,00,16,12.10
2017,07,17,00,17,12.20
2017,07,17,00,18,12.10
2017,07,17,00,19,12.20
2017,07,17,00,20,12.20
2017,07,17,00,21,12.20
2017,07,17,00,22,12.20
2017,07,17,00,23,12.20
2017,07,17,00,24,12.20
2017,07,17,00,25,12.10
2017,07,17,00,26,12.10
2017,07,17,00,27,12.10
2017,07,17,00,28,12.10
2017,07,17,00,29,12.10
2017,07,17,00,30,12.10
2017,07,17,00,31,12.10
2017,07,17,00,32,12.10
2017,07,17,00,33,12.10
2017,07,17,00,34,12.00
2017,07,17,00,35,12.00
2017,07,17,00,36,12.00
2017,07,17,00,37,12.00
2017,07,17,00,38,11.90
2017,07,17,00,39,11.90
2017,07,17,00,40,11.90
2017,07,17,00,41,11.90
2017,07,17,00,42,11.90
2017,07,17,00,43,11.90
2017,07,17,00,44,11.90
2017,07,17,00,45,11.80
2017,07,17,00,46,11.80
2017,07,17,00,47,11.80
2017,07,17,00,48,11.80
2017,07,17,00,49,11.80
2017,07,17,00,50,11.70
2017,07,17,00,51,11.70
2017,07,17,00,52,11.70
2017,07,17,00,53,11.70
2017,07,17,00,54,11.70
2017,07,17,00,55,11.70
2017,07,17,00,56,11.70
2017,07,17,00,57,11.70
2017,07,17,00,58,11.70
2017,07,17,00,59,11.60
2017,07,17,01,00,11.60
2017,07,17,01,01,11.60
2017,07,17,01,02,11.60
2017,07,17,01,03,11.60
2017,07,17,01,04,11.60
2017,07,17,01,05,11.60
2017,07,17,01,06,11.60
2017,07,17,01,07,11.60
2017,07,17,01,08,11.60
2017,07,17,01,09,11.60
2017,07,17,01,10,11.50
2017,07,17,01,11,11.50
2017,07,17,01,12,11.50
2017,07,17,01,13,11.50
2017,07,17,01,14,11.40
2017,07,17,01,15,11.40
2017,07,17,01,16,11.40
2017,07,17,01,17,11.40
2017,07,17,01,18,11.40
2017,07,17,01,19,11.40
2017,07,17,01,20,11.40
2017,07,17,01,21,11.30
2017,07,17,01,22,11.30
2017,07,17,01,23,11.30
2017,07,17,01,24,11.30
2017,07,17,01,25,11.20
2017,07,17,01,26,11.20
2017,07,17,01,27,11.20
2017,07,17,01,28,11.20
2017,07,17,01,29,11.20
2017,07,17,01,30,11.20
2017,07,17,01,31,11.20
2017,07,17,01,32,11.20
2017,07,17,01,33,11.20
2017,07,17,01,34,11.20
2017,07,17,01,35,11.20
2017,07,17,01,36,11.20
2017,07,17,01,37,11.20
2017,07,17,01,38,11.20
2017,07,17,01,39,11.20
2017,07,17,01,40,11.20
2017,07,17,01,41,11.20
2017,07,17,01,42,11.20
2017,07,17,01,43,11.20
2017,07,17,01,44,11.20
2017,07,17,01,45,11.20
2017,07,17,01,46,11.20
2017,07,17,01,47,11.20
2017,07,17,01,48,11.20
2017,07,17,01,49,11.20
2017,07,17,01,50,11.20
2017,07,17,01,51,11.10
2017,07,17,01,52,11.10
2017,07,17,01,53,11.10
2017,07,17,01,54,11.10
2017,07,17,01,55,11.10
2017,07,17,01,56,11.10
2017,07,17,01,57,11.10
2017,07,17,01,58,11.10
2017,07,17,01,59,11.10
2017,07,17,02,00,11.10
2017,07,17,02,01,11.10
2017,07,17,02,02,11.10
2017,07,17,02,03,11.10
2017,07,17,02,04,11.10
2017,07,17,02,05,11.10
2017,07,17,02,06,11.10
2017,07,17,02,07,11.20
2017,07,17,02,08,11.10
2017,07,17,02,09,11.10
2017,07,17,02,10,11.10
2017,07,17,02,11,11.10
2017,07,17,02,12,11.10
2017,07,17,02,13,11.10
2017,07,17,02,14,11.10
2017,07,17,02,15,11.10
2017,07,17,02,16,11.10
2017,07,17,02,17,11.00
2017,07,17,02,18,11.00
2017,07,17,02,19,11.00
2017,07,17,02,20,11.00
2017,07,17,02,21,11.00
2017,07,17,02,22,10.90
2017,07,17,02,23,10.90
2017,07,17,02,24,10.90
2017,07,17,02,25,10.90
2017,07,17,02,26,10.90
2017,07,17,02,27,10.90
2017,07,17,02,28,10.90
2017,07,17,02,29,10.90
2017,07,17,02,30,10.90
2017,07,17,02,31,10.90
2017,07,17,02,32,10.90
2017,07,17,02,33,10.90
2017,07,17,02,34,10.80
2017,07,17,02,35,10.80
2017,07,17,02,36,10.80
2017,07,17,02,37,10.80
2017,07,17,02,38,10.80
2017,07,17,02,39,10.80
2017,07,17,02,40,10.80
2017,07,17,02,41,10.80
2017,07,17,02,42,10.80
2017,07,17,02,43,10.80
2017,07,17,02,44,10.80
2017,07,17,02,45,10.80
2017,07,17,02,46,10.80
2017,07,17,02,47,10.80
2017,07,17,02,48,10.80
2017,07,17,02,49,10.80
2017,07,17,02,50,10.80
2017,07,17,02,51,10.80
2017,07,17,02,52,10.80
2017,07,17,02,53,10.80
2017,07,17,02,54,10.80
2017,07,17,02,55,10.80
2017,07,17,02,56,10.80
2017,07,17,02,57,10.80
2017,07,17,02,58,10.80
2017,07,17,02,59,10.80
2017,07,17,03,00,10.80
2017,07,17,03,01,10.80
2017,07,17,03,02,10.80
2017,07,17,03,03,10.80
2017,07,17,03,04,10.80
2017,07,17,03,05,10.80
2017,07,17,03,06,10.80
2017,07,17,03,07,10.90
2017,07,17,03,08,10.90
2017,07,17,03,09,10.90
2017,07,17,03,10,10.90
2017,07,17,03,11,10.90
2017,07,17,03,12,10.80
2017,07,17,03,13,10.80
2017,07,17,03,14,10.80
2017,07,17,03,15,10.80
2017,07,17,03,16,10.80
2017,07,17,03,17,10.80
2017,07,17,03,18,10.80
2017,07,17,03,19,10.90
2017,07,17,03,20,10.90
2017,07,17,03,21,10.90
2017,07,17,03,22,10.90
2017,07,17,03,23,10.90
2017,07,17,03,24,10.90
2017,07,17,03,25,10.90
2017,07,17,03,26,10.90
2017,07,17,03,27,10.90
2017,07,17,03,28,10.90
2017,07,17,03,29,10.90
2017,07,17,03,30,10.90
2017,07,17,03,31,10.80
2017,07,17,03,32,10.80
2017,07,17,03,33,10.80
2017,07,17,03,34,10.80
2017,07,17,03,35,10.80
2017,07,17,03,36,10.80
2017,07,17,03,37,10.80
2017,07,17,03,38,10.70
2017,07,17,03,39,10.70
2017,07,17,03,40,10.70
2017,07,17,03,41,10.70
2017,07,17,03,42,10.70
2017,07,17,03,43,10.70
2017,07,17,03,44,10.70
2017,07,17,03,45,10.60
2017,07,17,03,46,10.60
2017,07,17,03,47,10.60
2017,07,17,03,48,10.70
2017,07,17,03,49,10.70
2017,07,17,03,50,10.60
2017,07,17,03,51,10.60
2017,07,17,03,52,10.60
2017,07,17,03,53,10.60
2017,07,17,03,54,10.70
2017,07,17,03,55,10.60
2017,07,17,03,56,10.60
2017,07,17,03,57,10.60
2017,07,17,03,58,10.60
2017,07,17,03,59,10.60
2017,07,17,04,00,10.60
2017,07,17,04,01,10.60
2017,07,17,04,02,10.60
2017,07,17,04,03,10.60
2017,07,17,04,04,10.60
2017,07,17,04,05,10.60
2017,07,17,04,06,10.60
2017,07,17,04,07,10.60
2017,07,17,04,08,10.60
2017,07,17,04,09,10.60
2017,07,17,04,10,10.60
2017,07,17,04,11,10.50
2017,07,17,04,12,10.50
2017,07,17,04,13,10.50
2017,07,17,04,14,10.40
2017,07,17,04,15,10.40
2017,07,17,04,16,10.40
2017,07,17,04,17,10.40
2017,07,17,04,18,10.30
2017,07,17,04,19,10.30
2017,07,17,04,20,10.30
2017,07,17,04,21,10.30
2017,07,17,04,22,10.30
2017,07,17,04,23,10.30
2017,07,17,04,24,10.20
2017,07,17,04,25,10.20
2017,07,17,04,26,10.20
2017,07,17,04,27,10.20
2017,07,17,04,28,10.20
2017,07,17,04,29,10.20
2017,07,17,04,30,10.20
2017,07,17,04,31,10.10
2017,07,17,04,32,10.10
2017,07,17,04,33,10.10
2017,07,17,04,34,10.10
2017,07,17,04,35,10.10
2017,07,17,04,36,10.10
2017,07,17,04,37,10.00
2017,07,17,04,38,10.00
2017,07,17,04,39,10.00
2017,07,17,04,40,10.00
2017,07,17,04,41,9.90
2017,07,17,04,42,9.90
2017,07,17,04,43,9.90
2017,07,17,04,44,9.90
2017,07,17,04,45,9.90
2017,07,17,04,46,9.80
2017,07,17,04,47,9.80
2017,07,17,04,48,9.80
2017,07,17,04,49,9.80
2017,07,17,04,50,9.80
2017,07,17,04,51,9.80
2017,07,17,04,52,9.80
2017,07,17,04,53,9.80
2017,07,17,04,54,9.80
2017,07,17,04,55,9.80
2017,07,17,04,56,9.80
2017,07,17,04,57,9.70
2017,07,17,04,58,9.70
2017,07,17,04,59,9.70
2017,07,17,05,00,9.70
2017,07,17,05,01,9.70
2017,07,17,05,02,9.70
2017,07,17,05,03,9.70
2017,07,17,05,04,9.70
2017,07,17,05,05,9.70
2017,07,17,05,06,9.70
2017,07,17,05,07,9.80
2017,07,17,05,08,9.70
2017,07,17,05,09,9.80
2017,07,17,05,10,9.80
2017,07,17,05,11,9.70
2017,07,17,05,12,9.70
2017,07,17,05,13,9.70
2017,07,17,05,14,9.70
2017,07,17,05,15,9.80
2017,07,17,05,16,9.70
2017,07,17,05,17,9.70
2017,07,17,05,18,9.70
2017,07,17,05,19,9.70
2017,07,17,05,20,9.70
2017,07,17,05,21,9.70
2017,07,17,05,22,9.70
2017,07,17,05,23,9.70
2017,07,17,05,24,9.70
2017,07,17,05,25,9.70
2017,07,17,05,26,9.70
2017,07,17,05,27,9.70
2017,07,17,05,28,9.70
2017,07,17,05,29,9.70
2017,07,17,05,30,9.70
2017,07,17,05,31,9.70
2017,07,17,05,32,9.80
2017,07,17,05,33,9.80
2017,07,17,05,34,9.70
2017,07,17,05,35,9.80
2017,07,17,05,36,9.80
2017,07,17,05,37,9.80
2017,07,17,05,38,9.80
2017,07,17,05,39,9.80
2017,07,17,05,40,9.80
2017,07,17,05,41,9.80
2017,07,17,05,42,9.80
2017,07,17,05,43,9.80
2017,07,17,05,44,9.80
2017,07,17,05,45,9.80
2017,07,17,05,46,9.80
2017,07,17,05,47,9.80
2017,07,17,05,48,9.80
2017,07,17,05,49,9.80
2017,07,17,05,50,9.80
2017,07,17,05,51,9.80
2017,07,17,05,52,9.80
2017,07,17,05,53,9.80
2017,07,17,05,54,9.80
2017,07,17,05,55,9.80
2017,07,17,05,56,9.80
2017,07,17,05,57,9.90
2017,07,17,05,58,9.90
2017,07,17,05,59,9.90
2017,07,17,06,00,9.90
2017,07,17,06,01,9.90
2017,07,17,06,02,9.90
2017,07,17,06,03,9.90
2017,07,17,06,04,9.90
2017,07,17,06,05,9.90
2017,07,17,06,06,10.00
2017,07,17,06,07,10.00
2017,07,17,06,08,10.00
2017,07,17,06,09,10.00
2017,07,17,06,10,10.00
2017,07,17,06,11,10.00
2017,07,17,06,12,10.00
2017,07,17,06,13,10.00
2017,07,17,06,14,10.00
2017,07,17,06,15,10.00
2017,07,17,06,16,10.00
2017,07,17,06,17,10.00
2017,07,17,06,18,10.00
2017,07,17,06,19,10.00
2017,07,17,06,20,10.00
2017,07,17,06,21,10.00
2017,07,17,06,22,10.00
2017,07,17,06,23,10.00
2017,07,17,06,24,10.00
2017,07,17,06,25,9.90
2017,07,17,06,26,9.90
2017,07,17,06,27,9.90
2017,07,17,06,28,9.90
2017,07,17,06,29,9.90
2017,07,17,06,30,9.90
2017,07,17,06,31,9.90
2017,07,17,06,32,10.00
2017,07,17,06,33,10.00
2017,07,17,06,34,10.10
2017,07,17,06,35,10.10
2017,07,17,06,36,10.10
2017,07,17,06,37,10.20
2017,07,17,06,38,10.20
2017,07,17,06,39,10.20
2017,07,17,06,40,10.20
2017,07,17,06,41,10.20
2017,07,17,06,42,10.20
2017,07,17,06,43,10.20
2017,07,17,06,44,10.20
2017,07,17,06,45,10.20
2017,07,17,06,46,10.30
2017,07,17,06,47,10.30
2017,07,17,06,48,10.30
2017,07,17,06,49,10.40
2017,07,17,06,50,10.40
2017,07,17,06,51,10.50
2017,07,17,06,52,10.50
2017,07,17,06,53,10.60
2017,07,17,06,54,10.70
2017,07,17,06,55,10.80
2017,07,17,06,56,10.80
2017,07,17,06,57,10.80
2017,07,17,06,58,10.80
2017,07,17,06,59,10.80
2017,07,17,07,00,10.90
2017,07,17,07,01,10.90
2017,07,17,07,02,10.90
2017,07,17,07,03,10.90
2017,07,17,07,04,11.00
2017,07,17,07,05,11.10
2017,07,17,07,06,11.10
2017,07,17,07,07,11.20
2017,07,17,07,08,11.30
2017,07,17,07,09,11.40
2017,07,17,07,10,11.40
2017,07,17,07,11,11.40
2017,07,17,07,12,11.40
2017,07,17,07,13,11.50
2017,07,17,07,14,11.50
2017,07,17,07,15,11.50
2017,07,17,07,16,11.50
2017,07,17,07,17,11.50
2017,07,17,07,18,11.50
2017,07,17,07,19,11.50
2017,07,17,07,20,11.50
2017,07,17,07,21,11.50
2017,07,17,07,22,11.60
2017,07,17,07,23,11.70
2017,07,17,07,24,11.80
2017,07,17,07,25,11.80
2017,07,17,07,26,11.90
2017,07,17,07,27,11.90
2017,07,17,07,28,11.90
2017,07,17,07,29,12.00
2017,07,17,07,30,12.00
2017,07,17,07,31,12.00
2017,07,17,07,32,12.00
2017,07,17,07,33,12.00
2017,07,17,07,34,12.00
2017,07,17,07,35,12.00
2017,07,17,07,36,12.00
2017,07,17,07,37,12.10
2017,07,17,07,38,12.10
2017,07,17,07,39,12.10
2017,07,17,07,40,12.20
2017,07,17,07,41,12.20
2017,07,17,07,42,12.30
2017,07,17,07,43,12.30
2017,07,17,07,44,12.40
2017,07,17,07,45,12.40
2017,07,17,07,46,12.40
2017,07,17,07,47,12.40
2017,07,17,07,48,12.50
2017,07,17,07,49,12.60
2017,07,17,07,50,12.70
2017,07,17,07,51,12.90
2017,07,17,07,52,13.00
2017,07,17,07,53,13.10
2017,07,17,07,54,13.20
2017,07,17,07,55,13.30
2017,07,17,07,56,13.40
2017,07,17,07,57,13.50
2017,07,17,07,58,13.60
2017,07,17,07,59,13.70
2017,07,17,08,00,13.80
2017,07,17,08,01,13.80
2017,07,17,08,02,13.90
2017,07,17,08,03,14.00
2017,07,17,08,04,14.10
2017,07,17,08,05,14.10
2017,07,17,08,06,14.20
2017,07,17,08,07,14.20
2017,07,17,08,08,14.30
2017,07,17,08,09,14.30
2017,07,17,08,10,14.30
2017,07,17,08,11,14.40
2017,07,17,08,12,14.40
2017,07,17,08,13,14.50
2017,07,17,08,14,14.50
2017,07,17,08,15,14.50
2017,07,17,08,16,14.60
2017,07,17,08,17,14.70
2017,07,17,08,18,14.70
2017,07,17,08,19,14.70
2017,07,17,08,20,14.70
2017,07,17,08,21,14.70
2017,07,17,08,22,14.80
2017,07,17,08,23,14.80
2017,07,17,08,24,14.80
2017,07,17,08,25,14.80
2017,07,17,08,26,14.80
2017,07,17,08,27,14.80
2017,07,17,08,28,14.80
2017,07,17,08,29,14.80
2017,07,17,08,30,14.80
2017,07,17,08,31,14.90
2017,07,17,08,32,14.90
2017,07,17,08,33,14.90
2017,07,17,08,34,15.00
2017,07,17,08,35,15.00
2017,07,17,08,36,15.10
2017,07,17,08,37,15.10
2017,07,17,08,38,15.10
2017,07,17,08,39,15.10
2017,07,17,08,40,15.10
2017,07,17,08,41,15.20
2017,07,17,08,42,15.20
2017,07,17,08,43,15.20
2017,07,17,08,44,15.30
2017,07,17,08,45,15.30
2017,07,17,08,46,15.40
2017,07,17,08,47,15.40
2017,07,17,08,48,15.40
2017,07,17,08,49,15.40
2017,07,17,08,50,15.40
2017,07,17,08,51,15.50
2017,07,17,08,52,15.50
2017,07,17,08,53,15.60
2017,07,17,08,54,15.60
2017,07,17,08,55,15.60
2017,07,17,08,56,15.60
2017,07,17,08,57,15.60
2017,07,17,08,58,15.60
2017,07,17,08,59,15.60
2017,07,17,09,00,15.70
2017,07,17,09,01,15.70
2017,07,17,09,02,15.80
2017,07,17,09,03,15.80
2017,07,17,09,04,15.80
2017,07,17,09,05,15.90
2017,07,17,09,06,16.00
2017,07,17,09,07,16.00
2017,07,17,09,08,16.00
2017,07,17,09,09,16.00
2017,07,17,09,10,16.10
2017,07,17,09,11,16.10
2017,07,17,09,12,16.10
2017,07,17,09,13,16.10
2017,07,17,09,14,16.10
2017,07,17,09,15,16.00
2017,07,17,09,16,16.00
2017,07,17,09,17,16.00
2017,07,17,09,18,16.00
2017,07,17,09,19,16.00
2017,07,17,09,20,16.10
2017,07,17,09,21,16.10
2017,07,17,09,22,16.10
2017,07,17,09,23,16.20
2017,07,17,09,24,16.20
2017,07,17,09,25,16.20
2017,07,17,09,26,16.30
2017,07,17,09,27,16.30
2017,07,17,09,28,16.30
2017,07,17,09,29,16.40
2017,07,17,09,30,16.40
2017,07,17,09,31,16.40
2017,07,17,09,32,16.40
2017,07,17,09,33,16.40
2017,07,17,09,34,16.40
2017,07,17,09,35,16.40
2017,07,17,09,36,16.40
2017,07,17,09,37,16.40
2017,07,17,09,38,16.40
2017,07,17,09,39,16.50
2017,07,17,09,40,16.60
2017,07,17,09,41,16.60
2017,07,17,09,42,16.70
2017,07,17,09,43,16.70
2017,07,17,09,44,16.70
2017,07,17,09,45,16.70
2017,07,17,09,46,16.70
2017,07,17,09,47,16.60
2017,07,17,09,48,16.60
2017,07,17,09,49,16.60
2017,07,17,09,50,16.60
2017,07,17,09,51,16.60
2017,07,17,09,52,16.60
2017,07,17,09,53,16.70
2017,07,17,09,54,16.70
2017,07,17,09,55,16.70
2017,07,17,09,56,16.70
2017,07,17,09,57,16.60
2017,07,17,09,58,16.60
2017,07,17,09,59,16.60
2017,07,17,10,00,16.50
2017,07,17,10,01,16.50
2017,07,17,10,02,16.40
2017,07,17,10,03,16.40
2017,07,17,10,04,16.40
2017,07,17,10,05,16.40
2017,07,17,10,06,16.40
2017,07,17,10,07,16.40
2017,07,17,10,08,16.50
2017,07,17,10,09,16.50
2017,07,17,10,10,16.60
2017,07,17,10,11,16.60
2017,07,17,10,12,16.60
2017,07,17,10,13,16.60
2017,07,17,10,14,16.60
2017,07,17,10,15,16.60
2017,07,17,10,16,16.70
2017,07,17,10,17,16.70
2017,07,17,10,18,16.70
2017,07,17,10,19,16.70
2017,07,17,10,20,16.60
2017,07,17,10,21,16.60
2017,07,17,10,22,16.60
2017,07,17,10,23,16.60
2017,07,17,10,24,16.60
2017,07,17,10,25,16.60
2017,07,17,10,26,16.50
2017,07,17,10,27,16.50
2017,07,17,10,28,16.50
2017,07,17,10,29,16.50
2017,07,17,10,30,16.50
2017,07,17,10,31,16.50
2017,07,17,10,32,16.50
2017,07,17,10,33,16.50
2017,07,17,10,34,16.50
2017,07,17,10,35,16.50
2017,07,17,10,36,16.40
2017,07,17,10,37,16.40
2017,07,17,10,38,16.30
2017,07,17,10,39,16.20
2017,07,17,10,40,16.00
2017,07,17,10,41,15.90
2017,07,17,10,42,15.90
2017,07,17,10,43,15.80
2017,07,17,10,44,15.80
2017,07,17,10,45,15.80
2017,07,17,10,46,15.90
2017,07,17,10,47,16.00
2017,07,17,10,48,16.10
2017,07,17,10,49,16.10
2017,07,17,10,50,16.10
2017,07,17,10,51,16.10
2017,07,17,10,52,16.00
2017,07,17,10,53,16.00
2017,07,17,10,54,16.10
2017,07,17,10,55,16.10
2017,07,17,10,56,16.00
2017,07,17,10,57,15.90
2017,07,17,10,58,15.80
2017,07,17,10,59,15.70
2017,07,17,11,00,15.60
2017,07,17,11,01,15.50
2017,07,17,11,02,15.40
2017,07,17,11,03,15.40
2017,07,17,11,04,15.40
2017,07,17,11,05,15.50
2017,07,17,11,06,15.60
2017,07,17,11,07,15.70
2017,07,17,11,08,15.80
2017,07,17,11,09,15.80
2017,07,17,11,10,15.90
2017,07,17,11,11,15.90
2017,07,17,11,12,15.80
2017,07,17,11,13,15.80
2017,07,17,11,14,15.80
2017,07,17,11,15,15.70
2017,07,17,11,16,15.70
2017,07,17,11,17,15.60
2017,07,17,11,18,15.60
2017,07,17,11,19,15.50
2017,07,17,11,20,15.30
2017,07,17,11,21,15.20
2017,07,17,11,22,15.10
2017,07,17,11,23,14.90
2017,07,17,11,24,14.90
2017,07,17,11,25,14.80
2017,07,17,11,26,14.80
2017,07,17,11,27,14.80
2017,07,17,11,28,14.80
2017,07,17,11,29,14.80
2017,07,17,11,30,14.80
2017,07,17,11,31,14.90
2017,07,17,11,32,14.90
2017,07,17,11,33,15.00
2017,07,17,11,34,15.00
2017,07,17,11,35,14.90
2017,07,17,11,36,14.90
2017,07,17,11,37,14.90
2017,07,17,11,38,14.90
2017,07,17,11,39,14.90
2017,07,17,11,40,14.90
2017,07,17,11,41,14.90
2017,07,17,11,42,14.90
2017,07,17,11,43,14.90
2017,07,17,11,44,15.00
2017,07,17,11,45,15.10
2017,07,17,11,46,15.10
2017,07,17,11,47,15.20
2017,07,17,11,48,15.30
2017,07,17,11,49,15.30
2017,07,17,11,50,15.40
2017,07,17,11,51,15.40
2017,07,17,11,52,15.40
2017,07,17,11,53,15.30
2017,07,17,11,54,15.30
2017,07,17,11,55,15.20
2017,07,17,11,56,15.20
2017,07,17,11,57,15.30
2017,07,17,11,58,15.30
2017,07,17,11,59,15.30
2017,07,17,12,00,15.30
2017,07,17,12,01,15.30
2017,07,17,12,02,15.30
2017,07,17,12,03,15.30
2017,07,17,12,04,15.30
2017,07,17,12,05,15.30
2017,07,17,12,06,15.30
2017,07,17,12,07,15.30
2017,07,17,12,08,15.30
2017,07,17,12,09,15.20
2017,07,17,12,10,15.30
2017,07,17,12,11,15.30
2017,07,17,12,12,15.30
2017,07,17,12,13,15.30
2017,07,17,12,14,15.30
2017,07,17,12,15,15.30
2017,07,17,12,16,15.40
2017,07,17,12,17,15.40
2017,07,17,12,18,15.50
2017,07,17,12,19,15.60
2017,07,17,12,20,15.60
2017,07,17,12,21,15.70
2017,07,17,12,22,15.80
2017,07,17,12,23,15.80
2017,07,17,12,24,15.80
2017,07,17,12,25,15.80
2017,07,17,12,26,15.80
2017,07,17,12,27,15.80
2017,07,17,12,28,15.90
2017,07,17,12,29,15.90
2017,07,17,12,30,16.00
2017,07,17,12,31,16.00
2017,07,17,12,32,16.10
2017,07,17,12,33,16.10
2017,07,17,12,34,16.20
2017,07,17,12,35,16.30
2017,07,17,12,36,16.30
2017,07,17,12,37,16.30
2017,07,17,12,38,16.40
2017,07,17,12,39,16.40
2017,07,17,12,40,16.50
2017,07,17,12,41,16.50
2017,07,17,12,42,16.50
2017,07,17,12,43,16.50
2017,07,17,12,44,16.40
2017,07,17,12,45,16.50
2017,07,17,12,46,16.50
2017,07,17,12,47,16.60
2017,07,17,12,48,16.60
2017,07,17,12,49,16.70
2017,07,17,12,50,16.70
2017,07,17,12,51,16.80
2017,07,17,12,52,16.80
2017,07,17,12,53,16.80
2017,07,17,12,54,16.80
2017,07,17,12,55,16.80
2017,07,17,12,56,16.70
2017,07,17,12,57,16.70
2017,07,17,12,58,16.70
2017,07,17,12,59,16.70
2017,07,17,13,00,16.60
2017,07,17,13,01,16.60
2017,07,17,13,02,16.60
2017,07,17,13,03,16.60
2017,07,17,13,04,16.60
2017,07,17,13,05,16.70
2017,07,17,13,06,16.70
2017,07,17,13,07,16.80
2017,07,17,13,08,16.90
2017,07,17,13,09,17.00
2017,07,17,13,10,17.10
2017,07,17,13,11,17.20
2017,07,17,13,12,17.20
2017,07,17,13,13,17.20
2017,07,17,13,14,17.20
2017,07,17,13,15,17.20
2017,07,17,13,16,17.30
2017,07,17,13,17,17.40
2017,07,17,13,18,17.50
2017,07,17,13,19,17.50
2017,07,17,13,20,17.50
2017,07,17,13,21,17.40
2017,07,17,13,22,17.20
2017,07,17,13,23,17.10
2017,07,17,13,24,17.00
2017,07,17,13,25,16.90
2017,07,17,13,26,16.80
2017,07,17,13,27,16.80
2017,07,17,13,28,16.80
2017,07,17,13,29,16.90
2017,07,17,13,30,16.90
2017,07,17,13,31,17.00
2017,07,17,13,32,17.00
2017,07,17,13,33,17.10
2017,07,17,13,34,17.10
2017,07,17,13,35,17.10
2017,07,17,13,36,17.20
2017,07,17,13,37,17.20
2017,07,17,13,38,17.30
2017,07,17,13,39,17.30
2017,07,17,13,40,17.40
2017,07,17,13,41,17.40
2017,07,17,13,42,17.40
2017,07,17,13,43,17.30
2017,07,17,13,44,17.20
2017,07,17,13,45,17.20
2017,07,17,13,46,17.20
2017,07,17,13,47,17.10
2017,07,17,13,48,17.10
2017,07,17,13,49,17.10
2017,07,17,13,50,17.10
2017,07,17,13,51,17.00
2017,07,17,13,52,17.00
2017,07,17,13,53,16.90
2017,07,17,13,54,17.00
2017,07,17,13,55,17.00
2017,07,17,13,56,17.10
2017,07,17,13,57,17.20
2017,07,17,13,58,17.20
2017,07,17,13,59,17.20
2017,07,17,14,00,17.10
2017,07,17,14,01,17.00
2017,07,17,14,02,16.90
2017,07,17,14,03,16.80
2017,07,17,14,04,16.80
2017,07,17,14,05,16.80
2017,07,17,14,06,16.80
2017,07,17,14,07,16.80
2017,07,17,14,08,16.90
2017,07,17,14,09,16.90
2017,07,17,14,10,16.90
2017,07,17,14,11,17.00
2017,07,17,14,12,17.00
2017,07,17,14,13,17.10
2017,07,17,14,14,17.20
2017,07,17,14,15,17.30
2017,07,17,14,16,17.30
2017,07,17,14,17,17.30
2017,07,17,14,18,17.30
2017,07,17,14,19,17.40
2017,07,17,14,20,17.50
2017,07,17,14,21,17.60
2017,07,17,14,22,17.70
2017,07,17,14,23,17.70
2017,07,17,14,24,17.70
2017,07,17,14,25,17.80
2017,07,17,14,26,17.90
2017,07,17,14,27,17.90
2017,07,17,14,28,17.80
2017,07,17,14,29,17.70
2017,07,17,14,30,17.70
2017,07,17,14,31,17.80
2017,07,17,14,32,17.90
2017,07,17,14,33,18.00
2017,07,17,14,34,18.10
2017,07,17,14,35,18.20
2017,07,17,14,36,18.20
2017,07,17,14,37,18.20
2017,07,17,14,38,18.20
2017,07,17,14,39,18.20
2017,07,17,14,40,18.30
2017,07,17,14,41,18.40
2017,07,17,14,42,18.40
2017,07,17,14,43,18.30
2017,07,17,14,44,18.20
2017,07,17,14,45,18.20
2017,07,17,14,46,18.20
2017,07,17,14,47,18.20
2017,07,17,14,48,18.20
2017,07,17,14,49,18.20
2017,07,17,14,50,18.30
2017,07,17,14,51,18.40
2017,07,17,14,52,18.50
2017,07,17,14,53,18.60
2017,07,17,14,54,18.80
2017,07,17,14,55,18.80
2017,07,17,14,56,18.80
2017,07,17,14,57,18.70
2017,07,17,14,58,18.50
2017,07,17,14,59,18.40
2017,07,17,15,00,18.40
2017,07,17,15,01,18.40
2017,07,17,15,02,18.40
2017,07,17,15,03,18.40
2017,07,17,15,04,18.20
2017,07,17,15,05,18.10
2017,07,17,15,06,17.90
2017,07,17,15,07,17.80
2017,07,17,15,08,17.80
2017,07,17,15,09,17.90
2017,07,17,15,10,18.00
2017,07,17,15,11,18.00
2017,07,17,15,12,18.10
2017,07,17,15,13,18.10
2017,07,17,15,14,18.10
2017,07,17,15,15,18.00
2017,07,17,15,16,18.00
2017,07,17,15,17,17.90
2017,07,17,15,18,17.80
2017,07,17,15,19,17.70
2017,07,17,15,20,17.60
2017,07,17,15,21,17.50
2017,07,17,15,22,17.50
2017,07,17,15,23,17.50
2017,07,17,15,24,17.60
2017,07,17,15,25,17.70
2017,07,17,15,26,17.70
2017,07,17,15,27,17.80
2017,07,17,15,28,17.80
2017,07,17,15,29,18.00
2017,07,17,15,30,18.10
2017,07,17,15,31,18.20
2017,07,17,15,32,18.20
2017,07,17,15,33,18.20
2017,07,17,15,34,18.20
2017,07,17,15,35,18.20
2017,07,17,15,36,18.20
2017,07,17,15,37,18.30
2017,07,17,15,38,18.30
2017,07,17,15,39,18.40
2017,07,17,15,40,18.40
2017,07,17,15,41,18.50
2017,07,17,15,42,18.60
2017,07,17,15,43,18.60
2017,07,17,15,44,18.60
2017,07,17,15,45,18.60
2017,07,17,15,46,18.60
2017,07,17,15,47,18.60
2017,07,17,15,48,18.50
2017,07,17,15,49,18.50
2017,07,17,15,50,18.40
2017,07,17,15,51,18.30
2017,07,17,15,52,18.20
2017,07,17,15,53,18.10
2017,07,17,15,54,18.10
2017,07,17,15,55,18.10
2017,07,17,15,56,18.10
2017,07,17,15,57,18.10
2017,07,17,15,58,18.20
2017,07,17,15,59,18.20
2017,07,17,16,00,18.30
2017,07,17,16,01,18.30
2017,07,17,16,02,18.20
2017,07,17,16,03,18.10
2017,07,17,16,04,18.00
2017,07,17,16,05,17.90
2017,07,17,16,06,17.80
2017,07,17,16,07,17.70
2017,07,17,16,08,17.60
2017,07,17,16,09,17.50
2017,07,17,16,10,17.50
2017,07,17,16,11,17.40
2017,07,17,16,12,17.40
2017,07,17,16,13,17.40
2017,07,17,16,14,17.40
2017,07,17,16,15,17.40
2017,07,17,16,16,17.40
2017,07,17,16,17,17.50
2017,07,17,16,18,17.50
2017,07,17,16,19,17.60
2017,07,17,16,20,17.70
2017,07,17,16,21,17.70
2017,07,17,16,22,17.80
2017,07,17,16,23,17.90
2017,07,17,16,24,18.00
2017,07,17,16,25,18.10
2017,07,17,16,26,18.10
2017,07,17,16,27,18.10
2017,07,17,16,28,18.20
2017,07,17,16,29,18.10
2017,07,17,16,30,18.10
2017,07,17,16,31,18.10
2017,07,17,16,32,18.00
2017,07,17,16,33,18.10
2017,07,17,16,34,18.10
2017,07,17,16,35,18.10
2017,07,17,16,36,18.10
2017,07,17,16,37,18.10
2017,07,17,16,38,18.00
2017,07,17,16,39,18.00
2017,07,17,16,40,18.00
2017,07,17,16,41,17.90
2017,07,17,16,42,17.80
2017,07,17,16,43,17.80
2017,07,17,16,44,17.80
2017,07,17,16,45,17.80
2017,07,17,16,46,17.90
2017,07,17,16,47,17.90
2017,07,17,16,48,17.80
2017,07,17,16,49,17.80
2017,07,17,16,50,17.70
2017,07,17,16,51,17.60
2017,07,17,16,52,17.50
2017,07,17,16,53,17.40
2017,07,17,16,54,17.40
2017,07,17,16,55,17.30
2017,07,17,16,56,17.20
2017,07,17,16,57,17.20
2017,07,17,16,58,17.10
2017,07,17,16,59,17.10
2017,07,17,17,00,17.10
2017,07,17,17,01,17.10
2017,07,17,17,02,17.10
2017,07,17,17,03,17.00
2017,07,17,17,04,16.90
2017,07,17,17,05,16.90
2017,07,17,17,06,17.00
2017,07,17,17,07,17.00
2017,07,17,17,08,17.20
2017,07,17,17,09,17.30
2017,07,17,17,10,17.40
2017,07,17,17,11,17.50
2017,07,17,17,12,17.60
2017,07,17,17,13,17.70
2017,07,17,17,14,17.80
2017,07,17,17,15,17.90
2017,07,17,17,16,17.90
2017,07,17,17,17,18.00
2017,07,17,17,18,18.00
2017,07,17,17,19,17.90
2017,07,17,17,20,18.00
2017,07,17,17,21,17.90
2017,07,17,17,22,17.90
2017,07,17,17,23,17.90